Regional Weather Roundup
Issued by NWS

Home | Current Version | Previous Version | Graphics & Text | Print | Product List | Glossary On
Versions: 1 2 3 4 5 6 7 8 9 10 11 12 13 14 15 16 17 18 19 20 21 22 23 24 25 26 27 28
000
ASUS45 KPSR 291010
RWRAZ

ARIZONA HOURLY REGIONAL WEATHER ROUNDUP
NATIONAL WEATHER SERVICE PHOENIX AZ
300 AM MST FRI APR 29 2016

NOTE: FAIR INDICATES FEW OR NO CLOUDS BELOW 12,000 FEET WITH NO
SIGNIFICANT WEATHER AND/OR OBSTRUCTIONS TO VISIBILITY.

AZZ001>003-036-291100-
NORTHWEST ARIZONA

CITY           SKY/WX    TMP DP  RH WIND       PRES   REMARKS
BULLHEAD CITY  MOCLDY    59  54  82 NE6       29.85R
KINGMAN        PTCLDY    46  41  82 S6        29.86S
$$

AZZ004>008-015-016-018-291100-
NORTH CENTRAL ARIZONA

CITY           SKY/WX    TMP DP  RH WIND       PRES   REMARKS
GRAND CANYON   CLOUDY    38  36  92 CALM      29.87S
WILLIAMS       CLOUDY    37  36  93 W6        29.96R WCI  33
PRESCOTT       CLOUDY    43  38  82 CALM      29.88S
FLAGSTAFF      MOCLDY    35  34  96 SW3       29.88R
PAYSON         CLOUDY    46  34  61 VRB5      29.90R
PAGE           CLOUDY    46  43  89 CALM      29.82S
$$

AZZ009>014-017-291100-
NORTHEAST ARIZONA

CITY           SKY/WX    TMP DP  RH WIND       PRES   REMARKS
WINSLOW        CLOUDY    39  28  64 CALM      29.85S
SAINT JOHNS    MOCLDY    35  13  40 CALM      29.86S
WINDOW ROCK    CLEAR     28  15  58 CALM      29.86S
SHOW LOW       MOCLDY    36  18  48 CALM      29.89S
$$

AZZ023-291100-
GREATER PHOENIX AREA

CITY           SKY/WX    TMP DP  RH WIND       PRES   REMARKS
PHOENIX        MOCLDY    65  37  35 W8        29.79S
BUCKEYE        PTCLDY    59  36  41 W3        29.83R
LUKE AFB       MOCLDY    64  38  38 S6        29.80R
DEER VALLEY    CLOUDY    63  36  36 SW8       29.80S
SCOTTSDALE     CLOUDY    64  36  35 W5        29.82S
MESA-GATEWAY   PTCLDY    59  36  41 SW9       29.83R
$$

AZZ027-028-291100-
SOUTHWEST MARICOPA COUNTY AND PINAL COUNTY

CITY           SKY/WX    TMP DP  RH WIND       PRES   REMARKS
CASA GRANDE    MOCLDY    57  32  38 CALM      29.85R
GILA BEND      FAIR      64  38  39 SW12      29.82S
$$

AZZ503-504-507>509-291100-
SOUTHEAST ARIZONA

CITY           SKY/WX    TMP DP  RH WIND       PRES   REMARKS
TUCSON         CLEAR     54  29  38 S8        29.89S
DAVIS-MONTHAN  CLEAR     52  30  43 S6        29.87S
NOGALES        CLEAR     43  31  62 E5        29.91S
SIERRA VISTA   CLEAR     45  26  46 NW3       29.92S
DOUGLAS        CLEAR     42  26  53 W6        29.91R
SAFFORD        CLEAR     51  21  30 N6        29.85R
$$

AZZ020-021-025-026-031-291100-
SOUTHWEST ARIZONA

CITY           SKY/WX    TMP DP  RH WIND       PRES   REMARKS
YUMA           CLEAR     60  43  53 W9        29.83S
$$

CAZ031-033-041-043-047-048-061-291100-
SOUTHERN CALIFORNIA

CITY           SKY/WX    TMP DP  RH WIND       PRES   REMARKS
DOWNTOWN L.A.  PTCLDY    58  51  78 VRB3      29.97F
L.A. AIRPORT   MOCLDY    57  50  77 E6        29.98S
SAN DIEGO      MOCLDY    60  49  66 S10       29.99F
BURBANK        PTCLDY    55  48  77 CALM      29.97S
ONTARIO        CLEAR     52  46  80 W5        29.97S
RIVERSIDE      CLEAR     52  45  77 E3        29.98S
PALM SPRINGS   CLEAR     64  42  44 NW9G20    29.85S
EL CENTRO NAS  CLEAR    N/A N/A N/A SW9       29.85S
IMPERIAL       CLEAR     60  43  53 W6        29.83S
BLYTHE         PTCLDY    63  40  42 W5        29.80S
NEEDLES        CLEAR     60  54  80 CALM      29.82S
$$

NVZ020-UTZ003-291100-
SOUTHERN NEVADA-UTAH

CITY           SKY/WX    TMP DP  RH WIND       PRES   REMARKS
LAS VEGAS      PTCLDY    54  47  77 SW6       29.80S
SALT LAKE CITY MOCLDY    45  34  65 W5        29.85S
$$

NMZ009-TXZ055-291100-
NEW MEXICO-WEST TEXAS

CITY           SKY/WX    TMP DP  RH WIND       PRES   REMARKS
ALBUQUERQUE    RAIN      44  39  82 NE3       29.89R
EL PASO        CLEAR     61  25  25 NW25G35   29.79R
$$


........................KEY........................
SKY/WX - SKY CONDITION/WEATHER
TMP    - TEMPERATURE IN FAHRENHEIT
DP     - DEW POINT IN FAHRENHEIT
RH     - RELATIVE HUMIDITY IN PERCENT
WIND   - DIRECTION AND SPEED IN MILES PER HOUR (MPH)
VRB    - VARIABLE WIND DIRECTION
PRES   - MEAN SEA LEVEL PRESSURE IN INCHES OF MERCURY
         F - FALLING PRESSURE   R - RISING PRESSURE
         S - STEADY PRESSURE
VSB    - VISIBILITY IN MILES
HX     - HEAT INDEX IN FAHRENHEIT
WCI    - WIND CHILL INDEX IN FAHRENHEIT
TC     - TEMPERATURE IN CELSIUS WHICH IS ALSO KNOWN AS
         TEMPERATURE IN CENTIGRADE
AFB    - AIR FORCE BASE
         LUKE AFB IS LUKE AIR FORCE BASE
         DAVIS-MONTHAN IS DAVIS-MONTHAN AIR FORCE BASE
NAS    - NAVAL AIR STATION
         EL CENTRO NAS IS EL CENTRO NAVAL AIR STATION
N/A    - NOT AVAILABLE





USA.gov is the U.S. government's official web portal to all federal, state and local government web resources and services.